Location: Newark
(60.1950°N, 25.0308°E)
Time: 15:06:59
(UTC+00:00)

KKS-1 - Visible Passes

Search period start: 05 December 2019 00:00
Search period end: 15 December 2019 00:00
Orbit: 637 x 650 km, 98.3° (Epoch: 05 December)

Date Brightness Start Highest point End Pass type
(mag) Time Alt. Az. Time Alt. Az. Time Alt. Az.
05 Dec ? 02:11:27 10° ENE 02:13:24 13° NE 02:15:05 11° NNE visible
05 Dec ? 03:44:48 10° SE 03:48:58 41° ENE 03:52:44 12° N visible
05 Dec ? 05:21:21 10° S 05:25:33 41° W 05:29:47 10° NNW visible
06 Dec ? 02:34:47 10° E 02:37:35 17° NE 02:39:48 12° NNE visible
06 Dec ? 04:09:02 10° SE 04:13:23 60° ENE 04:17:27 12° NNW visible
06 Dec ? 05:46:26 10° SSW 05:50:16 28° W 05:54:07 10° NNW visible
07 Dec ? 02:58:25 10° E 03:01:49 22° NE 03:04:32 13° N visible
07 Dec ? 04:33:26 10° SSE 04:37:53 88° ENE 04:42:11 11° NNW visible
07 Dec ? 06:11:52 10° SW 06:15:03 19° W 06:18:16 10° NW visible
08 Dec ? 03:22:17 10° ESE 03:26:08 30° NE 03:29:16 14° N visible
08 Dec ? 04:58:04 10° S 05:02:27 62° WSW 05:06:53 10° NNW visible
09 Dec ? 02:12:56 10° ENE 02:14:56 13° NE 02:16:22 11° NNE visible
09 Dec ? 03:46:20 10° SE 03:50:30 42° ENE 03:54:01 14° N visible
09 Dec ? 05:22:54 10° S 05:27:06 41° W 05:31:20 10° NNW visible
10 Dec ? 02:36:17 10° E 02:39:07 17° NE 02:41:06 13° NNE visible
10 Dec ? 04:10:34 10° SE 04:14:55 61° ENE 04:18:45 13° NNW visible
10 Dec ? 05:48:00 10° SSW 05:51:49 28° W 05:55:39 10° NNW visible
11 Dec ? 02:59:56 10° E 03:03:21 22° NE 03:05:51 14° N visible
11 Dec ? 04:34:58 10° SSE 04:39:25 89° E 04:43:30 13° NNW visible
11 Dec ? 06:13:26 10° SW 06:16:37 19° W 06:19:48 10° NW visible
12 Dec ? 01:51:59 10° NE 01:52:19 10° NNE 01:52:41 10° NNE visible
12 Dec ? 03:23:48 10° ESE 03:27:39 30° NE 03:30:36 15° N visible
12 Dec ? 04:59:36 10° S 05:03:59 61° WSW 05:08:15 11° NNW visible
13 Dec ? 02:14:24 10° ENE 02:16:27 13° NE 02:17:43 12° NNE visible
13 Dec ? 03:47:51 10° SE 03:52:02 42° ENE 03:55:21 15° N visible
13 Dec ? 05:24:27 10° S 05:28:39 40° W 05:32:52 10° NNW visible
14 Dec ? 02:37:47 10° E 02:40:39 17° NE 02:42:28 14° NNE visible
14 Dec ? 04:12:06 10° SE 04:16:27 62° ENE 04:20:07 15° NNW visible
14 Dec ? 05:49:33 10° SSW 05:53:22 27° W 05:57:12 10° NW visible
